This is the latest recevied weather packets stored in our database for station/object KE0LFX. If no packets are shown the sender has not sent any weather packets the latest 10 day(s).
| Time | Temp. | Humidity | Pressure | Rain* | Wind** | Luminosity | Snow |
|---|---|---|---|---|---|---|---|
| 1777152954 | 21.11° C | 50% | 1017.1 hPa | 0 mm | - | 274 W/m² | - |
| 1777152650 | 21.11° C | 50% | 1017.3 hPa | 0 mm | - | 261 W/m² | - |
| 1777152348 | 21.11° C | 52% | 1017.3 hPa | 0 mm | - | 238 W/m² | - |
| 1777152042 | 21.11° C | 51% | 1017.1 hPa | 0 mm | - | 263 W/m² | - |
| 1777151738 | 21.11° C | 53% | 1017.3 hPa | 0 mm | - | 287 W/m² | - |
| 1777151435 | 21.11° C | 53% | 1017.2 hPa | 0 mm | - | 296 W/m² | - |
| 1777151131 | 21.11° C | 52% | 1017.3 hPa | 0 mm | - | 275 W/m² | - |
| 1777150826 | 21.11° C | 53% | 1017.3 hPa | 0 mm | - | 258 W/m² | - |
| 1777150520 | 21.11° C | 52% | 1017.5 hPa | 0 mm | - | 242 W/m² | - |
| 1777150216 | 21.11° C | 50% | 1017.4 hPa | 0 mm | - | 297 W/m² | - |
| 1777149915 | 21.67° C | 51% | 1017.5 hPa | 0 mm | - | 480 W/m² | - |
| 1777149610 | 21.67° C | 51% | 1017.4 hPa | 0 mm | - | 469 W/m² | - |
| 1777149307 | 21.67° C | 52% | 1017.5 hPa | 0 mm | - | 482 W/m² | - |
| 1777149002 | 21.67° C | 52% | 1017.4 hPa | 0 mm | - | 553 W/m² | - |
| 1777148697 | 21.11° C | 51% | 1017.7 hPa | 0 mm | - | 593 W/m² | - |
| 1777148393 | 21.11° C | 50% | 1017.5 hPa | 0 mm | - | 622 W/m² | - |
| 1777148090 | 21.67° C | 52% | 1017.7 hPa | 0 mm | - | 609 W/m² | - |
| 1777147786 | 21.11° C | 54% | 1017.6 hPa | 0 mm | - | 620 W/m² | - |
| 1777147482 | 21.67° C | 54% | 1017.7 hPa | 0 mm | - | 624 W/m² | - |
| 1777147177 | 21.67° C | 54% | 1017.7 hPa | 0 mm | - | 627 W/m² | - |
| 1777146873 | 21.67° C | 54% | 1018 hPa | 0 mm | - | 579 W/m² | - |
| 1777146570 | 21.67° C | 51% | 1017.8 hPa | 0 mm | - | 615 W/m² | - |
| 1777146266 | 21.11° C | 54% | 1017.8 hPa | 0 mm | - | 690 W/m² | - |
| 1777145962 | 21.11° C | 54% | 1018 hPa | 0 mm | - | 703 W/m² | - |
| 1777145658 | 20.56° C | 56% | 1018 hPa | 0 mm | - | 701 W/m² | - |
* Rain latest hour (hover to see other rain measurements)
** Current wind speed in m/s (hover to see current wind gust speed)